FENGYUN 1C DEB

Satellite information

Favourite Embed

Satellite Type and Status

DEBRISIN ORBIT

Key statistics

Satellite FENGYUN 1C DEB at a glance.

Uptime

9619

Days in orbit

Revolutions

≈ 14.1

Per day

Orbit

SSO

Sun Synchronous Orbit

Inclination

98.3

Latest

Satellite identification and parameters

Extended collection of information and parameters for FENGYUN 1C DEB.

Object identification

Identified? True

Debris? True

Object name: FENGYUN 1C DEB

International designator: 1999-025CZH

Object number (NORAD): 32364

Object ID (CCSDS): 32364

Country: PEOPLES REPUBLIC OF CHINA (PRC)

Current information (Y/N): Y

RCS size: SMALL

Orbital parameters

Period: 101.897 minutes

Inclination: 98.3267 deg

SMA: 7226.626 km

Apoapsis: 942.312 km

Periapsis: 754.67 km

RAAN: 61.8519 deg

Eccentricy: 0.0129827

Argument of periapsis: 207.1683 deg

Mean anomaly: 152.2658 deg

Mean motion: 14.13186131 rev/day

Mean motion (dot): 0.00003596 rev/day2

B* drag term: 0.0017929 1/REarth

Two-line elements (TLE)

Creation date: Aug. 2, 2025, 4:51 a.m.

Reference frame: TEME

Reference center: EARTH

Epoch: Aug. 1, 2025, 7:03 p.m. UTC

TLE line 0: 0 FENGYUN 1C DEB

TLE line 1: 1 32364U 99025CZH 25213.79438222 .00003596 00000-0 17929-2 0 9996

TLE line 2: 2 32364 98.3267 61.8519 0129827 207.1683 152.2658 14.13186131618307

Live tracking on map

Real-time ground track for satellite FENGYUN 1C DEB.

In-orbit conjunctions

A list of the most updated potential collisions computed for object FENGYUN 1C DEB.

Target Orbit TCA Probability of collision Miss distance Type
DMSP 5D-2 F10 (USA 68) SSO 2024-10-16 20:12:24 0.0001095066 720.0 (m) PAYLOAD
COSMOS 1759 LEO 2024-09-04 12:07:11 0.0001039449 901.0 (m) PAYLOAD
FENGYUN 1C SSO 2024-06-20 10:00:27 0.0003641264 98.0 (m) PAYLOAD

Associated space launch

Chinese polar orbiting meteorological satellite

FENGYUN 1C DEB was lifted into orbit during the mission ‘Long March 4B | Feng Yun 1C’, on board a Long March 4B space rocket.

The launch took place on May 10, 1999, 1:33 a.m. from Launch Complex 7.

For more information about the launch, click the button.

Launch to space Long March 4B | Feng Yun 1C
Long March 4B | Feng Yun 1C

Agency: N/A

Status: Launch Successful

Launch date: May 10, 1999, 1:33 a.m. UTC

Rocket: Long March 4B

Launch pad: Launch Complex 7

Location: Taiyuan Satellite Launch Center, People's Republic of China

...

Latest news about this satellite

There are no fresh news available about this satellite. Check back as we update our databases every day.


Newsletter sign-up

Weekly statistics, charts and insights to help you stay on top of the space industry.